KRAUCHNWS Weather Reports


Display with metric or nautical units.
time (UTC)temp
F
wind
direction
speed
MPH
gust
MPH
rain 1hr
in
rain 24hr
in
rain mn
in
humidity
%
barometer
mb
20260504160210 67 271 7.0 0.0 0.00 0.00 0.00 41 1010.0
20260504150210 68 309 2.0 0.0 0.00 0.00 0.00 35 1009.8
20260504140209 71 171 14.0 0.0 0.00 0.00 0.00 38 1010.2
20260504130215 71 34 6.0 0.0 0.00 0.00 0.00 38 1010.5
20260504120210 71 111 11.0 0.0 0.00 0.00 0.00 39 1010.9
20260504110210 69 26 7.0 0.0 0.00 0.00 0.00 31 1011.4
20260504100212 68 342 8.0 0.0 0.00 0.00 0.00 38 1011.9
20260504080210 64 22 5.0 0.0 0.00 0.00 0.00 47 1012.8
20260504070212 57 22 1.0 0.0 0.00 0.00 0.00 68 1013.1
20260504060212 50 114 0.0 0.0 0.00 0.00 0.00 79 1013.0
20260504050210 47 344 0.0 0.0 0.00 0.00 0.00 86 1012.9
20260504043211 47 319 2.0 0.0 0.00 0.00 0.00 86 1013.0
20260504040211 46 309 1.0 0.0 0.00 0.00 0.00 86 1013.1
20260504033211 47 131 1.0 0.0 0.00 0.00 0.00 85 1013.3
20260504030212 48 215 1.0 0.0 0.00 0.00 0.00 82 1013.4
20260504023211 50 343 1.0 0.0 0.00 0.00 0.00 80 1013.4
20260504020212 50 265 0.0 0.0 0.00 0.00 0.00 80 1013.3
20260504013211 51 265 0.0 0.0 0.00 0.00 0.00 79 1013.3
20260504010211 51 355 0.0 0.0 0.00 0.00 0.00 77 1013.1
20260504003210 52 310 1.0 0.0 0.00 0.00 0.00 74 1013.3
20260504000208 53 186 2.0 0.0 0.00 0.00 0.00 73 1013.5
20260503233209 53 144 2.0 0.0 0.00 0.00 0.00 71 1013.8
20260503230209 54 115 2.0 0.0 0.00 0.00 0.00 69 1014.0
20260503223210 54 140 3.0 0.0 0.00 0.00 0.00 66 1014.1
20260503213210 56 211 4.0 0.0 0.00 0.00 0.00 60 1013.9
20260503210211 57 206 3.0 0.0 0.00 0.00 0.00 58 1013.6
20260503203209 58 221 3.0 0.0 0.00 0.00 0.00 56 1013.3
20260503200211 59 252 4.0 0.0 0.00 0.00 0.00 54 1013.0
20260503193210 60 274 5.0 0.0 0.00 0.00 0.00 51 1012.8
20260503190210 61 277 8.0 0.0 0.00 0.00 0.00 47 1012.4
20260503183209 62 271 7.0 0.0 0.00 0.00 0.00 44 1012.2
20260503180210 65 262 10.0 0.0 0.00 0.00 0.00 39 1011.7
20260503173209 68 308 8.0 0.0 0.00 0.00 0.00 47 1011.2
20260503170211 69 294 10.0 0.0 0.00 0.00 0.00 46 1011.1